• In Uzbekistan
  • List of Countries
  • For 7 days
  • Water Temperature
  • Weather Map
  • Weather Widgets
  • user-avatar
    Login

    Hourly Weather Tokmak

    Today, 19 August, Monday

    Time Temperature Precipitation Wind Pressure Humidity
    00:00 -4°C° 0 mm 2 mps 483 mmHg 72%
    01:00 -2°C° 0 mm 1 mps 483 mmHg 72%
    02:00 -3°C° 0 mm 1 mps 483 mmHg 72%
    03:00 -3°C° 0 mm 1 mps 483 mmHg 72%
    04:00 -3°C° 0 mm 1 mps 482 mmHg 71%
    05:00 -3°C° 0 mm 1 mps 482 mmHg 71%
    06:00 -1°C° 0 mm 1 mps 484 mmHg 66%
    07:00 0°C° 0 mm 1 mps 485 mmHg 62%
    08:00 +2°C° 0 mm 1 mps 487 mmHg 57%
    09:00 +3°C° 0.2 mm 1 mps 487 mmHg 55%
    10:00 +3°C° 0.2 mm 2 mps 487 mmHg 54%
    11:00 +3°C° 0.2 mm 2 mps 488 mmHg 52%
    12:00 +4°C° 0.5 mm 2 mps 488 mmHg 51%
    13:00 +4°C° 0.5 mm 2 mps 488 mmHg 50%
    14:00 +5°C° 0.5 mm 2 mps 488 mmHg 48%
    15:00 +5°C° 0.1 mm 2 mps 488 mmHg 47%
    16:00 +4°C° 0.1 mm 3 mps 488 mmHg 46%
    17:00 +4°C° 0.1 mm 3 mps 488 mmHg 44%
    18:00 +3°C° 0 mm 2 mps 487 mmHg 51%
    19:00 +1°C° 0 mm 2 mps 486 mmHg 58%
    20:00 0°C° 0 mm 1 mps 485 mmHg 64%
    21:00 0°C° 0 mm 1 mps 485 mmHg 63%
    22:00 -1°C° 0 mm 1 mps 485 mmHg 63%
    23:00 -3°C° 0 mm 2 mps 485 mmHg 62%

    Tomorrow, 20 August, Tuesday

    Time Temperature Precipitation Wind Pressure Humidity
    00:00 -3°C° 0 mm 2 mps 484 mmHg 62%
    01:00 -3°C° 0 mm 2 mps 484 mmHg 63%
    02:00 -3°C° 0 mm 2 mps 484 mmHg 63%
    03:00 -3°C° 0 mm 2 mps 483 mmHg 63%
    04:00 -1°C° 0 mm 1 mps 483 mmHg 64%
    05:00 -2°C° 0 mm 1 mps 483 mmHg 64%
    06:00 0°C° 0 mm 1 mps 485 mmHg 59%
    07:00 +2°C° 0 mm 1 mps 486 mmHg 53%
    08:00 +3°C° 0 mm 0 mps 488 mmHg 48%
    09:00 +5°C° 0 mm 1 mps 488 mmHg 46%
    10:00 +6°C° 0 mm 2 mps 489 mmHg 44%
    11:00 +7°C° 0 mm 2 mps 489 mmHg 42%
    12:00 +7°C° 0 mm 3 mps 489 mmHg 42%
    13:00 +7°C° 0 mm 3 mps 489 mmHg 42%
    14:00 +8°C° 0 mm 3 mps 489 mmHg 43%
    15:00 +7°C° 0 mm 3 mps 489 mmHg 42%
    16:00 +7°C° 0 mm 3 mps 489 mmHg 42%
    17:00 +5°C° 0 mm 3 mps 488 mmHg 42%
    18:00 +4°C° 0 mm 2 mps 487 mmHg 46%
    19:00 +2°C° 0 mm 2 mps 486 mmHg 51%
    20:00 +1°C° 0 mm 1 mps 485 mmHg 56%
    21:00 +1°C° 0 mm 1 mps 485 mmHg 55%
    22:00 -1°C° 0 mm 2 mps 484 mmHg 53%
    23:00 -1°C° 0 mm 2 mps 484 mmHg 52%

    Day after tomorrow, 21 August, Wednesday

    Time Temperature Precipitation Wind Pressure Humidity
    00:00 -1°C° 0 mm 2 mps 484 mmHg 54%
    01:00 -1°C° 0 mm 2 mps 483 mmHg 55%
    02:00 -2°C° 0 mm 3 mps 483 mmHg 57%
    03:00 -2°C° 0 mm 2 mps 483 mmHg 57%
    04:00 -2°C° 0 mm 2 mps 483 mmHg 58%
    05:00 -2°C° 0 mm 2 mps 482 mmHg 58%
    06:00 +1°C° 0 mm 2 mps 484 mmHg 53%
    07:00 +4°C° 0 mm 1 mps 485 mmHg 47%
    08:00 +6°C° 0 mm 1 mps 487 mmHg 42%
    09:00 +8°C° 0 mm 1 mps 487 mmHg 40%
    10:00 +9°C° 0 mm 1 mps 488 mmHg 38%
    11:00 +9°C° 0 mm 2 mps 489 mmHg 36%
    12:00 +9°C° 0.2 mm 2 mps 488 mmHg 39%
    13:00 +9°C° 0.2 mm 2 mps 488 mmHg 41%
    14:00 +9°C° 0.2 mm 3 mps 488 mmHg 44%
    15:00 +9°C° 0.3 mm 3 mps 487 mmHg 44%
    16:00 +8°C° 0.3 mm 3 mps 487 mmHg 45%
    17:00 +8°C° 0.3 mm 3 mps 487 mmHg 45%
    18:00 +5°C° 0.2 mm 3 mps 486 mmHg 52%
    19:00 +3°C° 0.2 mm 2 mps 484 mmHg 59%
    20:00 +2°C° 0.2 mm 1 mps 483 mmHg 65%
    21:00 +2°C° 0 mm 1 mps 483 mmHg 63%
    22:00 +2°C° 0 mm 1 mps 483 mmHg 61%
    23:00 +2°C° 0 mm 1 mps 483 mmHg 59%

    22 August, Thursday

    Time Temperature Precipitation Wind Pressure Humidity
    00:00 +2°C° 0 mm 1 mps 483 mmHg 59%
    01:00 +1°C° 0 mm 2 mps 483 mmHg 59%
    02:00 +1°C° 0 mm 2 mps 482 mmHg 59%
    03:00 +1°C° 0 mm 1 mps 482 mmHg 60%
    04:00 +1°C° 0 mm 1 mps 482 mmHg 62%
    05:00 +1°C° 0 mm 1 mps 482 mmHg 63%
    06:00 +2°C° 0 mm 1 mps 483 mmHg 58%
    07:00 +4°C° 0 mm 1 mps 484 mmHg 52%
    08:00 +6°C° 0 mm 1 mps 486 mmHg 47%
    09:00 +7°C° 0 mm 1 mps 486 mmHg 44%
    10:00 +8°C° 0 mm 1 mps 487 mmHg 41%
    11:00 +8°C° 0 mm 2 mps 487 mmHg 39%
    12:00 +8°C° 0.4 mm 2 mps 487 mmHg 42%
    13:00 +8°C° 0.4 mm 3 mps 487 mmHg 45%
    14:00 +8°C° 0.4 mm 3 mps 487 mmHg 48%
    15:00 +8°C° 0.7 mm 3 mps 486 mmHg 51%
    16:00 +7°C° 0.7 mm 3 mps 486 mmHg 53%
    17:00 +5°C° 0.7 mm 3 mps 486 mmHg 56%
    18:00 +4°C° 0.5 mm 3 mps 485 mmHg 62%
    19:00 +3°C° 0.5 mm 2 mps 484 mmHg 69%
    20:00 +2°C° 0.5 mm 2 mps 483 mmHg 75%
    21:00 +2°C° 0.2 mm 1 mps 483 mmHg 74%
    22:00 +2°C° 0.2 mm 1 mps 483 mmHg 72%
    23:00 +2°C° 0.2 mm 1 mps 483 mmHg 70%

    23 August, Friday

    Time Temperature Precipitation Wind Pressure Humidity
    00:00 +1°C° 0 mm 2 mps 483 mmHg 68%
    01:00 +1°C° 0 mm 2 mps 483 mmHg 66%
    02:00 0°C° 0 mm 3 mps 483 mmHg 63%
    03:00 0°C° 0 mm 3 mps 483 mmHg 63%
    04:00 -1°C° 0 mm 3 mps 482 mmHg 63%
    05:00 -1°C° 0 mm 2 mps 482 mmHg 63%
    06:00 +2°C° 0 mm 2 mps 484 mmHg 58%
    07:00 +5°C° 0 mm 1 mps 485 mmHg 52%
    08:00 +6°C° 0 mm 0 mps 486 mmHg 47%
    09:00 +8°C° 0.3 mm 1 mps 487 mmHg 44%
    10:00 +9°C° 0.3 mm 1 mps 488 mmHg 41%
    11:00 +9°C° 0.3 mm 2 mps 488 mmHg 38%
    12:00 +9°C° 0.7 mm 2 mps 488 mmHg 40%
    13:00 +9°C° 0.7 mm 3 mps 488 mmHg 42%
    14:00 +8°C° 0.7 mm 4 mps 488 mmHg 45%
    15:00 +7°C° 0.7 mm 4 mps 488 mmHg 48%
    16:00 +7°C° 0.7 mm 3 mps 487 mmHg 51%
    17:00 +7°C° 0.7 mm 3 mps 487 mmHg 54%
    18:00 +4°C° 0.1 mm 3 mps 486 mmHg 59%
    19:00 +3°C° 0.1 mm 2 mps 486 mmHg 64%
    20:00 +3°C° 0.1 mm 1 mps 485 mmHg 69%
    21:00 +3°C° 0 mm 1 mps 485 mmHg 67%
    22:00 +1°C° 0 mm 2 mps 485 mmHg 66%
    23:00 +1°C° 0 mm 2 mps 485 mmHg 64%

    24 August, Saturday

    Time Temperature Precipitation Wind Pressure Humidity
    00:00 +1°C° 0 mm 2 mps 485 mmHg 63%
    01:00 +1°C° 0 mm 2 mps 485 mmHg 61%
    02:00 +1°C° 0 mm 2 mps 485 mmHg 60%
    03:00 -1°C° 0 mm 2 mps 484 mmHg 60%
    04:00 +1°C° 0 mm 1 mps 484 mmHg 61%
    05:00 0°C° 0 mm 1 mps 484 mmHg 62%
    06:00 +2°C° 0 mm 1 mps 485 mmHg 56%
    07:00 +4°C° 0 mm 0 mps 487 mmHg 51%
    08:00 +6°C° 0 mm 0 mps 488 mmHg 46%
    09:00 +8°C° 0 mm 1 mps 489 mmHg 44%
    10:00 +8°C° 0 mm 2 mps 490 mmHg 42%
    11:00 +9°C° 0 mm 2 mps 490 mmHg 40%
    12:00 +9°C° 0.3 mm 2 mps 490 mmHg 42%
    13:00 +9°C° 0.3 mm 3 mps 490 mmHg 44%
    14:00 +10°C° 0.3 mm 3 mps 490 mmHg 45%
    15:00 +9°C° 0.3 mm 3 mps 490 mmHg 46%
    16:00 +9°C° 0.3 mm 3 mps 490 mmHg 47%
    17:00 +8°C° 0.3 mm 3 mps 489 mmHg 48%
    18:00 +7°C° 0 mm 2 mps 488 mmHg 53%
    19:00 +5°C° 0 mm 2 mps 487 mmHg 58%
    20:00 +4°C° 0 mm 1 mps 486 mmHg 63%
    21:00 +4°C° 0 mm 1 mps 486 mmHg 62%
    22:00 +2°C° 0 mm 2 mps 486 mmHg 61%
    23:00 +2°C° 0 mm 2 mps 486 mmHg 61%
    Show more